Location: Marcé
(47.5801°N, 0.3280°W)
Time: 05:54:09
(UTC+01:00)

ISS - Pass Details

Date: 30 October 2021
Orbit: 417 x 422 km, 51.6° (Epoch: 04 December)

Event Time Altitude Azimuth Distance (km) Brightness Sun altitude
Exits shadow 07:12:13 32° 309° (NW) 753 -2.9 -15.7°
Maximum altitude 07:13:14 42° 353° (N) 617 -3.0 -15.5°
Drops below altitude 10° 07:16:28 10° 66° (ENE) 1,501 0.0 -15.0°
Sets 07:18:38 0° 74° (ENE) 2,364 1.4 -14.6°
